"2009-12-31 23:54:00",2.7
"2009-12-31 23:55:00",1.7
"2009-12-31 23:56:00",1.5
"2009-12-31 23:57:00",1.7
"2009-12-31 23:58:00",1.8
"2009-12-31 23:59:00",1.8
"2010-01-01 00:00:00",2.0
"2010-01-01 00:01:00",2.1
"2010-01-01 00:02:00",1.8
"2010-01-01 00:03:00",1.5
"2010-01-01 00:04:00",1.4
"2010-01-01 00:05:00",1.3
"2010-01-01 00:06:00",1.2
"2010-01-01 00:07:00",1.0
"2010-01-01 00:08:00",1.4
"2010-01-01 00:09:00",1.6
"2010-01-01 00:10:00",1.4
"2010-01-01 00:11:00",1.2
"2010-01-01 00:12:00",1.1
"2010-01-01 00:13:00",1.0
"2010-01-01 00:14:00",1.6
"2010-01-01 00:15:00",1.6
"2010-01-01 00:16:00",2.0
"2010-01-01 00:17:00",1.6
"2010-01-01 00:18:00",1.4
"2010-01-01 00:19:00",1.9
"2010-01-01 00:20:00",2.2
"2010-01-01 00:21:00",1.5
"2010-01-01 00:22:00",1.3
"2010-01-01 00:23:00",0.9
"2010-01-01 00:24:00",0.7
"2010-01-01 00:25:00",0.8
"2010-01-01 00:26:00",1.0
"2010-01-01 00:27:00",1.1
"2010-01-01 00:28:00",1.0
"2010-01-01 00:29:00",1.3
"2010-01-01 00:30:00",1.2
"2010-01-01 00:31:00",1.2
"2010-01-01 00:32:00",1.2
"2010-01-01 00:33:00",1.4
"2010-01-01 00:34:00",1.3
"2010-01-01 00:35:00",1.4
"2010-01-01 00:36:00",1.4
"2010-01-01 00:37:00",1.9
"2010-01-01 00:38:00",1.4
"2010-01-01 00:39:00",1.7
"2010-01-01 00:40:00",3.6
"2010-01-01 00:41:00",4.4
"2010-01-01 00:42:00",4.6
"2010-01-01 00:43:00",4.5
"2010-01-01 00:44:00",4.2
"2010-01-01 00:45:00",3.2
"2010-01-01 00:46:00",1.7
"2010-01-01 00:47:00",1.0
"2010-01-01 00:48:00",1.3
"2010-01-01 00:49:00",2.2
"2010-01-01 00:50:00",2.1
"2010-01-01 00:51:00",2.4
"2010-01-01 00:52:00",2.2
"2010-01-01 00:53:00",2.1
"2010-01-01 00:54:00",3.9
"2010-01-01 00:55:00",3.9
"2010-01-01 00:56:00",3.4
"2010-01-01 00:57:00",3.3
"2010-01-01 00:58:00",3.3
"2010-01-01 00:59:00",2.5
"2010-01-01 01:00:00",1.6
"2010-01-01 01:01:00",1.4
"2010-01-01 01:02:00",1.5
"2010-01-01 01:03:00",1.5
"2010-01-01 01:04:00",1.4
"2010-01-01 01:05:00",1.0
"2010-01-01 01:06:00",1.3
"2010-01-01 01:07:00",2.2
"2010-01-01 01:08:00",2.7
"2010-01-01 01:09:00",3.2
"2010-01-01 01:10:00",3.3
"2010-01-01 01:11:00",3.4
